This is the latest recevied weather packets stored in our database for station/object LX0APE-4. If no packets are shown the sender has not sent any weather packets the latest 10 day(s).
| Time | Temp. | Humidity | Pressure | Rain* | Wind** | Luminosity | Snow |
|---|---|---|---|---|---|---|---|
| 1777456927 | 17.22° C | 35% | 5018.2 hPa | 0 mm | - | - | - |
| 1777456627 | 16.67° C | 36% | 5018.2 hPa | 0 mm | - | - | - |
| 1777456327 | 16.67° C | 38% | 5018.2 hPa | 0 mm | - | - | - |
| 1777456027 | 16.11° C | 40% | 5018 hPa | 0 mm | - | - | - |
| 1777455727 | 15.56° C | 41% | 5018.1 hPa | 0 mm | - | - | - |
| 1777455432 | 15.56° C | 40% | 5018 hPa | 0 mm | - | - | - |
| 1777455427 | 15.56° C | 40% | 5018 hPa | 0 mm | - | - | - |
| 1777455127 | 15° C | 42% | 5018.1 hPa | 0 mm | - | - | - |
| 1777454827 | 15° C | 42% | 5018 hPa | 0 mm | - | - | - |
| 1777454531 | 14.44° C | 42% | 5018.1 hPa | 0 mm | - | - | - |
| 1777454527 | 14.44° C | 42% | 5018.1 hPa | 0 mm | - | - | - |
| 1777454227 | 14.44° C | 42% | 5018.1 hPa | 0 mm | - | - | - |
| 1777453927 | 14.44° C | 43% | 5018.1 hPa | 0 mm | - | - | - |
| 1777453632 | 13.89° C | 43% | 5018 hPa | 0 mm | - | - | - |
| 1777453627 | 13.89° C | 43% | 5018 hPa | 0 mm | - | - | - |
| 1777453327 | 13.89° C | 43% | 5017.7 hPa | 0 mm | - | - | - |
| 1777453027 | 13.33° C | 43% | 5017.9 hPa | 0 mm | - | - | - |
| 1777452733 | 13.33° C | 44% | 5018 hPa | 0 mm | - | - | - |
| 1777452727 | 13.33° C | 44% | 5018 hPa | 0 mm | - | - | - |
| 1777452427 | 13.33° C | 43% | 5018 hPa | 0 mm | - | - | - |
| 1777452127 | 12.78° C | 45% | 5018 hPa | 0 mm | - | - | - |
| 1777451827 | 12.78° C | 44% | 5018.1 hPa | 0 mm | - | - | - |
| 1777451527 | 12.78° C | 45% | 5018.2 hPa | 0 mm | - | - | - |
| 1777451227 | 12.22° C | 45% | 5018 hPa | 0 mm | - | - | - |
| 1777450927 | 12.22° C | 44% | 5017.9 hPa | 0 mm | - | - | - |
* Rain latest hour (hover to see other rain measurements)
** Current wind speed in m/s (hover to see current wind gust speed)